CAPE
1 0 0 0 0 0 0 0 0 0 0 0 0 0 0 0 0 0 0 0 0 0 0 0 0 0 0 0 0 0 0 0 0 0 0 0 0 0 0 0 0 0 0 0 0
0 0 0 0 0 0 0 0 0 0 0 0 0 0 0 0 0 0 0 0 0 0 0 0 0 0 0 0 0 0 0 0 0 0 0 0 0 0 0 0 0 0 0 0 0
0 0 0 0 0 0 0 0 0 0 0 0 0 0 0 0 0 0 0 0 0 0 0 0 0 0 0 0 0 0 0 0 0 0 0 0 0 0 0 0 0 0 0 0 0
0 0 0 0 0 0 0 0 0 0 0 0 0 0 0 0 0 0 0 0 0 0 0 0 0 0 0 0 0 0 0 0 0 0 0 0 0 0 0 0 0 0 0 0 0
0 0 0 0 0 0 0 0 0 0 0 0 0 0 0 0 0 0 0 0 0 0 0 0 0 0 0 0 0 0 0 0 0 0 0 0 0 0 0 0 0 0 0 0 0
0 0 0 0 0 0 0 0 0 0 0 0 0 0 0 0 0 0 0 0 0 0 0 0 0 0 0 0 0 0 0 0 0 0 0 0 0 0 0 0 0 0 0 0 0
0 0 0 0 0 0 0 0 0 0 0 0 0 0 0 0 0 0 0 0 0 0 0 0 0 0 0 0 0 0 0 0 0 0 0 0 0 0 0 0 0 0 0 0 0
0 0 0 0 0 0 0 0 0 0 0 0 0 0 0 0 0 0 0 0 0 0 0 0 0 0 0 0 0 0 0 0 0 0 0 0 0 0 0 0 0 0 0 0 0
0 0 0 0 0 0 0 0 0 0 0 0 0 0 0 0 0 0 0 0 0 0 0 0 0 0 0 0 2 0 0 0 0 0 0 0 0 0 0 0 0 0 0 0 0
0 0 0 0 0 0 0 0 0 0 0 0 0 0 0 0 0 0 0 0 0 0 0 0 0 0 0 1 0 0 0 0 0 0 0 0 0 0 0 0 0 0 0 0 0
0 0 0 0 0 0 0 0 0 0 0 0 0 0 0 0 0 0 0 0 0 0 0 0 0 0 0 0 3 7 3 2 0 0 0 0 0 0 0 0 0 0 0 0 0
0 0 0 0 0 0 0 0 0 0 0 0 0 0 0 0 0 0 0 0 0 0 0 0 0 0 0 0 0 0 0 0 0 0 0 0 0 0 0 0 0 0 0 0 0
0 0 0 0 0 0 0 0 0 0 0 0 0 0 0 0 0 0 0 0 0 0 0 0 0 0 0 1 0 0 0 0 0 0 0 0 0 0 0 0 0 0 0 0 0
0 0 0 0 0 0 0 0 0 0 0 0 0 0 0 0 0 0 0 0 0 0 0 0 0 0 0 0 0 0 0 0 0 0 0 0 0 0 0 0 0 0 0 0 0
0 0 0 0 0 0 0 0 0 0 0 0 0 0 0 0 0 0 0 0 0 0 0 0 0 0 0 0 0 0 0 0 1 0 0 0 0 0 0 0 0 0 0 0 0
0 0 0 0 0 0 0 0 0 0 0 0 0 0 0 0 0 0 0 0 0 0 0 0 0 0 0 0 0 0 0 0 0 0 0 0 0 0 0 0 0 0 0 0 0
0 0 0 0 0 0 0 0 0 0 0 0 0 0 0 0 0 0 0 0 0 0 0 0 0 0 0 0 0 0 0 0 0 0 0 0 0 0 0 0 1 0 0 0 0
0 0 0 0 0 0 0 0 0 0 0 0 0 0 0 0 0 0 0 0 0 0 0 0 0 0 0 0 0 0 0 0 0 0 0 0 0 0 0 0 0 0 0 0 0
0 0 0 0 0 0 0 0 0 0 0 0 0 0 0 0 0 0 0 0 0 0 0 0 0 0 0 0 3 0 0 0 0 0 0 0 0 0 0 0 0 0 0 0 0
0 0 0 0 0 0 0 0 0 0 0 0 0 0 0 0 0 0 0 0 0 0 0 0 0 0 0 0 0 0 0 0 0 0 0 0 0 0 0 1 0 0 0 0 0
0 0 0 0 0 0 0 0 0 0 0 0 0 0 0 0 0 0 0 0 0 0 0 0 0 0 0 0 0 0 0 0 0 0 0 0 0 0 0 2 1 0 0 0 0
0 0 0 0 0 0 0 0 0 0 0 0 0 0 0 0 0 0 0 0 0 0 0 0 0 0 0 0 0 0 1 0 1 0 0 0 0 0 0 1 0 1 3 0 0
0 0 0 0 0 0 0 0 0 0 0 0 0 0 0 0 0 0 0 0 0 0 0 0 0 0 0 0 0 0 0 0 0 0 0 0 0 0 0 0 1 2 3 3 2
0 0 0 0 0 0 0 0 0 0 0 0 0 0 0 0 0 0 0 0 0 0 5 0 0 0 0 0 0 0 0 0 0 0 0 0 0 0 0 0 0 0 3 6 6
0 0 0 0 0 0 0 0 0 0 0 0 0 0 0 0 0 0 0 0 0 0 0 0 0 0 0 0 0 0 0 0 0 0 0 0 0 0 0 0 0 0 2 5 5
0 0 0 0 0 0 0 0 0 0 0 0 0 0 0 0 0 0 0 0 0 0 0 0 0 0 0 0 0 0 0 0 0 0 0 0 0 0 0 0 0 0 1 1 4
0 0 0 0 0 0 0 0 0 0 0 0 0 0 0 0 0 0 0 0 1 2 0 0 0 0 0 0 0 0 0 0 0 0 0 0 0 0 0 0 0 0 2 1 1
CIN
-0 -0 -0 -0 -0 -0 -0 -0 -0 -0 -0 -0 -0 -0 -0 -0 -0 -0 -0 -0 -0 -0 -0 -0 -0 -0 -0 -0 -0 -0 -0 -0 -0 -0 -0 -0 -0 -0 -0 -0 -0 -0 -0 -0 -0
-0 -0 -0 -0 -0 -0 -0 -0 -0 -0 -0 -0 -0 -0 -0 -0 -0 -0 -0 -0 -0 -0 -0 -0 -0 -0 -0 -0 -0 -0 -0 -0 -0 -0 -0 -0 -0 -0 -0 -0 -0 -0 -0 -0 -0
-0 -0 -0 -0 -0 -0 -0 -0 -0 -0 -0 -0 -0 -0 -0 -0 -0 -0 -0 -0 -0 -0 -0 -0 -0 -0 -0 -0 -0 -0 -0 -0 -0 -0 -0 -0 -0 -0 -0 -0 -0 -0 -0 -0 -0
-0 -0 -0 -0 -0 -0 -0 -0 -0 -0 -0 -0 -0 -0 -0 -0 -0 -0 -0 -0 -0 -0 -0 -0 -0 -0 -0 -0 -0 -0 -0 -0 -0 -0 -0 -0 -0 -0 -0 -0 -0 -0 -0 -0 -0
-0 -0 -0 -0 -0 -0 -0 -0 -0 -0 -0 -0 -0 -0 -0 -0 -0 -0 -0 -0 -0 -0 -0 -0 -0 -0 -0 -0 -0 -0 -0 -0 -0 -0 -0 -0 -0 -0 -0 -0 -0 -0 -0 -0 -0
-0 -0 -0 -0 -0 -0 -0 -0 -0 -0 -0 -0 -0 -0 -0 -0 -0 -0 -0 -0 -0 -0 -0 -0 -0 -0 -0 -0 -0 -0 -0 -0 -0 -0 -0 -0 -0 -0 -0 -0 -0 -0 -0 -0 -0
-0 -0 -0 -0 -0 -0 -0 -0 -0 -0 -0 -0 -0 -0 -0 -0 -0 -0 -0 -0 -0 -0 -0 -0 -0 -0 -0 -0 -0 -0 -0 -0 -0 -0 -0 -0 -0 -0 -0 -0 -0 -0 -0 -0 -0
-0 -0 -0 -0 -0 -0 -0 -0 -0 -0 -0 -0 -0 -0 -0 -0 -0 -0 -0 -0 -0 -0 -0 -0 -0 -0 -0 -0 -0 -0 -0 -0 -0 -0 -0 -0 -0 -0 -0 -0 -0 -0 -0 -0 -0
-0 -0 -0 -0 -0 -0 -0 -0 -0 -0 -0 -0 -0 -0 -0 -0 -0 -0 -0 -0 -0 -0 -0 -0 -0 -0 -0 -0 -0 -0 -0 -0 -0 -0 -0 -0 -0 -0 -0 -0 -0 -0 -0 -0 -0
-0 -0 -0 -0 -0 -0 -0 -0 -0 -0 -0 -0 -0 -0 -0 -0 -0 -0 -0 -0 -0 -0 -0 -0 -0 -0 -0 -1 -0 -0 -1 -0 -0 -0 -0 -0 -0 -0 -0 -0 -0 -0 -0 -0 -0
-0 -0 -0 -0 -0 -0 -0 -0 -0 -0 -0 -0 -0 -0 -0 -0 -0 -0 -0 -0 -0 -0 -0 -0 -0 -0 -0 -0 -0 -0 -1 -9 -0 -0 -0 -0 -0 -0 -0 -0 -0 -0 -0 -0 -0
-0 -0 -0 -0 -0 -0 -0 -0 -0 -0 -0 -0 -0 -0 -0 -0 -0 -0 -0 -0 -0 -0 -0 -0 -0 -0 -0 -0 -0 -0 -0 -0 -0 -0 -0 -0 -0 -0 -0 -0 -0 -0 -0 -0 -0
-0 -0 -0 -0 -0 -0 -0 -0 -0 -1 -0 -0 -0 -0 -0 -0 -0 -0 -0 -0 -0 -0 -0 -0 -0 -0 -0 -0 -0 -0 -0 -0 -0 -0 -0 -0 -0 -0 -0 -0 -0 -0 -0 -0 -0
-0 -0 -0 -0 -0 -0 -0 -0 -0 -0 -0 -0 -0 -0 -0 -0 -0 -0 -0 -0 -0 -0 -0 -0 -0 -0 -0 -0 -0 -0 -0 -0 -0 -0 -0 -0 -0 -0 -0 -0 -0 -0 -0 -0 -0
-0 -0 -0 -0 -0 -0 -0 -0 -0 -0 -0 -0 -0 -0 -0 -0 -0 -0 -0 -0 -0 -0 -0 -0 -0 -0 -0 -0 -0 -0 -0 -0 -0 -0 -0 -0 -0 -0 -0 -0 -0 -0 -0 -0 -0
-0 -0 -0 -0 -0 -0 -0 -0 -0 -0 -0 -0 -0 -0 -0 -0 -0 -0 -0 -0 -0 -0 -0 -0 -0 -0 -0 -0 -0 -0 -0 -0 -0 -0 -0 -0 -0 -0 -0 -0 -0 -0 -0 -0 -0
-0 -0 -0 -0 -0 -0 -0 -0 -0 -0 -0 -0 -0 -0 -0 -0 -0 -0 -0 -0 -0 -0 -0 -0 -0 -0 -0 -0 -0 -0 -0 -0 -0 -0 -0 -0 -0 -0 -0 -0 -0 -0 -0 -0 -0
-0 -0 -0 -0 -0 -0 -0 -0 -0 -0 -0 -0 -0 -0 -0 -0 -0 -0 -0 -0 -0 -0 -0 -0 -0 -0 -0 -0 -0 -0 -0 -0 -0 -0 -0 -0 -0 -0 -0 -0 -0 -0 -0 -0 -0
-0 -0 -0 -0 -0 -0 -0 -0 -0 -0 -0 -0 -0 -0 -0 -0 -0 -0 -0 -0 -0 -0 -0 -0 -0 -0 -0 -0 -4 -0 -0 -0 -0 -0 -0 -0 -0 -0 -0 -0 -0 -0 -0 -0 -0
-0 -0 -0 -0 -0 -0 -0 -0 -0 -0 -0 -0 -0 -0 -0 -0 -0 -0 -0 -0 -0 -0 -0 -0 -0 -0 -0 -0 -0 -0 -0 -0 -0 -0 -0 -0 -0 -0 -0 -0 -0 -0 -0 -0 -0
-0 -0 -0 -0 -0 -0 -0 -0 -0 -0 -0 -0 -0 -0 -0 -0 -0 -0 -0 -0 -0 -0 -0 -0 -0 -0 -0 -0 -0 -0 -0 -0 -0 -0 -0 -0 -0 -0 -0 -0 -0 -0 -0 -0 -0
-0 -0 -0 -0 -0 -0 -0 -0 -0 -0 -0 -0 -0 -0 -0 -0 -0 -0 -0 -0 -0 -0 -0 -0 -0 -0 -0 -0 -0 -0 -0 -0 -0 -0 -0 -0 -0 -0 -0 -0 -0 -2 -0 -0 -0
-0 -0 -0 -0 -0 -0 -0 -0 -0 -0 -0 -0 -0 -0 -0 -0 -0 -0 -0 -0 -0 -0 -0 -0 -0 -0 -0 -0 -0 -0 -0 -0 -0 -0 -0 -0 -0 -0 -0 -0 -0 -0 -0 -0 -0
-0 -0 -0 -0 -0 -0 -0 -0 -0 -0 -0 -0 -0 -0 -0 -0 -0 -0 -0 -0 -0 -0 -0 -0 -0 -0 -0 -0 -0 -0 -0 -0 -0 -0 -0 -0 -0 -0 -0 -0 -0 -0 -0 -0 -0
-0 -0 -0 -0 -0 -0 -0 -0 -0 -0 -0 -0 -0 -0 -0 -0 -0 -0 -0 -0 -0 -0 -0 -0 -0 -0 -0 -0 -0 -0 -0 -0 -0 -0 -0 -0 -0 -0 -0 -0 -0 -0 -0 -0 -0
-0 -0 -0 -0 -0 -0 -0 -0 -0 -0 -0 -0 -0 -0 -0 -0 -0 -0 -0 -0 -0 -0 -0 -0 -0 -0 -0 -0 -0 -0 -0 -0 -0 -0 -0 -0 -0 -0 -0 -0 -0 -0 -0 -0 -0
-0 -0 -0 -0 -0 -0 -0 -0 -0 -0 -0 -0 -0 -0 -0 -0 -0 -0 -0 -0 -0 -0 -0 -0 -0 -0 -0 -0 -0 -0 -0 -0 -0 -0 -0 -0 -0 -0 -0 -0 -0 -0 -0 -0 -0
Wind_Speed
24 25 26 26 27 28 29 29 31 32 32 33 34 36 37 38 38 26 26 25 26 30 31 32 31 34 30 30 28 27 40 49 47 46 45 41 40 37 36 38 32 30 30 30 31
24 25 27 28 27 28 29 30 31 31 32 34 36 36 36 37 30 25 24 25 27 30 32 34 36 36 34 31 30 32 42 45 38 41 47 45 44 45 44 45 42 40 32 32 28
25 26 28 28 29 30 30 30 32 32 33 35 35 34 33 32 26 24 23 26 28 29 29 30 31 34 34 31 30 32 42 40 45 46 43 45 47 41 46 50 34 38 39 35 30
25 27 29 29 30 31 31 31 34 33 32 33 33 31 31 26 31 24 23 26 28 28 29 31 31 32 31 31 26 33 32 37 44 44 44 49 46 50 49 51 41 41 39 36 36
26 28 30 30 31 32 32 34 34 31 31 31 30 29 27 27 26 24 25 27 29 27 30 31 29 26 27 26 29 30 31 30 33 42 46 48 51 52 56 50 46 43 40 43 41
26 29 31 31 33 34 34 34 34 30 27 27 28 25 26 28 23 25 29 29 28 27 27 23 23 21 25 21 22 24 28 32 31 39 43 48 52 47 51 49 50 48 47 47 46
28 30 32 33 34 35 34 36 36 26 24 25 27 24 23 24 25 29 29 31 27 23 24 18 16 17 18 24 19 20 26 34 35 35 41 40 49 52 46 46 51 50 48 49 49
29 31 33 34 35 37 35 36 33 28 23 26 24 24 23 22 26 31 31 30 22 20 15 12 14 16 18 19 24 27 25 32 31 27 24 27 51 45 40 43 49 47 46 47 48
29 32 33 35 36 37 36 37 27 25 26 24 24 25 28 29 35 34 29 26 21 15 13 16 17 16 19 21 26 20 30 28 44 26 26 20 41 38 39 45 48 46 43 45 46
29 32 34 36 37 37 38 30 26 23 28 22 23 27 32 39 38 30 18 5 8 14 20 21 17 19 18 19 26 26 25 22 42 30 27 41 48 47 44 45 48 48 45 42 43
30 32 34 36 36 35 41 27 31 27 30 26 26 32 34 34 26 14 10 13 17 21 22 19 21 20 18 14 14 18 19 17 43 44 38 32 49 48 45 43 49 51 48 46 46
29 32 35 35 31 31 33 32 28 23 28 23 27 31 31 27 26 13 19 21 20 12 19 22 18 18 15 18 15 15 14 16 33 37 22 15 32 45 45 45 46 50 51 47 45
29 33 36 35 24 29 33 32 24 22 26 26 30 33 31 26 21 19 24 19 17 19 21 21 17 12 15 16 15 13 11 11 15 36 20 15 29 46 45 45 47 50 52 47 46
30 33 36 35 23 27 28 28 23 21 30 37 36 32 28 19 20 17 27 20 22 23 26 23 19 16 17 16 16 17 13 12 6 11 14 16 37 26 33 38 41 46 49 50 46
29 33 34 30 23 28 24 24 21 21 40 37 36 24 26 27 19 19 27 23 24 24 24 24 15 22 20 19 19 15 13 10 5 4 5 4 24 25 22 34 40 43 47 47 45
28 31 31 24 23 25 24 21 21 34 42 36 35 31 30 25 24 19 25 26 18 24 25 23 17 21 25 13 9 10 12 11 5 6 9 6 8 24 22 22 25 32 39 41 42
28 30 23 22 25 23 22 23 32 43 33 37 38 30 26 27 26 30 30 33 36 37 44 32 22 23 29 29 24 22 20 20 16 14 11 16 11 8 29 29 28 32 36 40 39
28 25 21 20 23 22 22 30 39 35 34 33 33 26 27 33 28 31 33 32 31 32 33 31 24 29 29 32 26 23 22 23 14 13 10 16 12 19 29 36 39 40 37 37 37
26 21 19 22 22 21 26 36 34 33 31 35 30 29 27 28 27 31 31 29 30 34 37 25 20 21 19 22 25 21 22 10 6 1 6 11 17 19 39 31 29 37 37 35 36
25 22 18 26 21 22 28 30 28 25 29 32 32 27 27 28 31 32 31 27 30 30 25 21 19 19 14 21 19 19 21 20 14 15 16 14 20 24 32 28 23 12 24 29 29
23 22 18 28 21 26 29 27 25 24 26 31 27 25 24 28 28 27 28 24 29 26 20 18 18 16 15 23 22 25 21 15 10 12 14 11 19 8 20 24 17 7 13 21 24
19 21 21 23 23 25 26 25 22 26 25 28 23 23 24 27 26 26 27 24 25 22 20 19 20 14 11 13 15 25 20 14 14 14 14 15 20 11 13 14 9 2 8 12 13
19 17 19 21 23 25 23 23 22 25 26 29 27 22 22 26 26 24 24 22 20 18 21 20 20 19 18 18 20 28 18 11 14 17 24 22 16 8 8 11 12 7 10 12 11
17 18 19 20 21 23 25 23 26 22 24 26 26 24 25 24 21 22 22 19 15 20 14 15 18 20 21 22 21 20 18 16 17 24 19 23 18 12 13 11 9 9 12 13 11
17 16 16 19 22 23 23 22 25 28 23 26 28 27 25 22 20 24 23 16 20 21 16 18 23 17 17 24 19 26 22 20 24 22 32 25 31 24 18 14 13 13 13 14 14
15 14 16 17 18 21 21 21 24 24 24 28 30 27 19 14 16 17 20 20 22 17 18 18 25 19 21 21 21 21 24 26 27 25 31 31 36 23 25 23 19 19 22 19 16
13 14 15 16 18 20 19 20 20 22 21 23 27 24 19 6 8 6 7 8 10 17 18 20 23 26 27 23 26 28 25 25 30 26 29 35 30 25 29 31 26 18 17 17 17
Wind_Direction
21 17 14 12 12 8 7 4 359 357 357 355 351 348 345 344 343 355 352 352 348 344 342 338 336 331 327 318 312 304 288 282 281 280 279 281 280 274 277 271 272 271 273 278 282
13 11 9 8 11 9 7 2 360 359 355 352 348 347 347 346 351 353 356 353 349 345 340 336 331 330 324 319 313 299 288 285 284 283 280 281 278 274 269 267 266 266 268 279 277
9 6 6 8 8 5 3 2 358 356 353 351 350 351 350 351 356 353 357 353 348 346 343 339 336 331 324 321 314 306 291 290 284 282 282 278 275 276 268 261 265 263 267 272 269
7 6 6 7 4 2 1 359 353 354 355 353 353 354 354 360 349 355 357 352 349 347 344 340 337 332 328 324 326 312 309 299 289 285 280 275 275 269 266 263 267 266 266 267 264
3 3 3 4 3 2 360 355 354 356 356 357 359 359 0 358 356 357 355 351 346 345 339 338 337 337 332 331 327 317 318 317 305 290 283 278 270 268 263 264 268 263 261 262 262
2 1 1 2 1 359 357 357 356 357 359 1 2 4 1 356 2 358 349 347 344 341 339 341 338 341 334 332 327 326 319 313 311 301 288 278 271 268 262 264 263 261 259 259 259
358 358 359 359 359 358 357 356 354 1 5 7 5 7 5 2 0 353 350 344 344 347 341 347 348 344 346 332 333 330 319 314 307 304 292 286 270 262 265 264 261 259 257 255 255
353 354 357 359 358 355 357 357 360 7 16 10 13 9 4 4 359 351 350 350 357 359 359 352 344 336 331 329 326 322 321 315 311 314 312 294 268 268 268 261 258 259 257 253 252
352 353 355 357 358 355 358 357 10 15 13 12 15 12 4 0 353 350 354 356 359 10 17 1 356 338 335 329 329 329 319 313 292 309 310 298 275 271 273 266 258 257 257 252 251
352 353 356 356 357 355 359 7 15 18 11 19 21 11 0 355 353 358 18 21 30 21 11 6 5 352 347 342 329 330 325 318 287 301 305 292 278 272 271 265 257 255 254 252 249
352 352 356 356 358 1 358 16 11 11 17 19 13 2 357 359 8 39 42 34 35 20 9 8 357 348 348 339 323 320 311 278 267 282 297 301 273 270 270 266 256 251 250 249 248
354 354 355 358 4 10 15 17 18 16 11 23 12 3 3 14 21 37 41 29 20 2 11 7 354 5 9 356 344 334 317 274 261 299 302 289 245 268 270 262 256 251 248 247 247
352 353 353 358 17 15 18 19 20 25 16 19 11 9 14 20 34 29 28 25 19 17 10 2 357 356 2 2 347 337 329 310 262 312 314 260 250 269 265 263 257 251 247 246 245
350 350 353 357 18 17 18 18 25 34 16 11 11 15 21 29 42 38 25 27 23 14 10 14 14 7 14 11 17 359 25 24 341 350 346 348 285 313 283 266 254 248 244 241 241
350 349 356 9 18 16 17 20 34 34 7 7 10 26 22 34 23 37 21 27 18 12 15 9 12 17 23 21 16 22 13 2 340 328 243 335 281 326 318 268 253 247 242 240 239
350 352 358 16 21 20 20 31 37 16 8 11 10 14 21 28 26 24 25 28 32 18 17 7 27 28 18 11 20 8 0 358 32 70 57 51 39 311 331 298 273 253 245 241 238
351 351 14 22 16 19 27 30 17 14 13 8 9 16 24 23 28 23 21 22 17 9 4 14 26 29 17 17 30 20 22 24 41 43 45 45 48 303 293 304 283 266 252 242 240
348 3 19 26 20 25 32 22 14 14 14 12 14 21 28 22 24 20 21 21 23 21 10 17 25 16 15 6 13 20 26 23 20 31 36 26 32 2 318 298 281 265 252 242 235
352 9 20 19 23 31 28 17 18 18 18 14 19 27 28 27 24 22 21 23 24 24 17 24 34 26 33 30 31 26 27 6 63 212 71 67 25 359 314 305 293 251 238 234 227
350 5 23 9 28 32 25 22 24 27 22 23 25 32 25 21 22 21 21 28 24 27 27 36 39 48 48 49 49 43 35 54 65 67 65 70 46 310 320 311 311 254 227 222 218
351 3 22 4 28 24 22 24 28 29 28 25 27 27 27 20 21 24 24 27 30 25 35 50 54 47 61 53 338 44 45 73 90 94 80 80 80 359 322 318 299 279 215 209 205
1 360 10 15 21 24 24 29 33 30 31 28 31 29 27 20 23 28 26 29 28 31 45 59 51 52 72 79 51 56 43 72 89 79 73 95 82 360 340 337 353 113 164 170 174
354 6 13 19 17 21 26 31 32 30 30 28 27 31 31 24 27 30 30 35 41 45 55 50 63 64 79 86 53 56 11 34 101 88 68 84 84 40 31 18 19 87 115 132 147
357 359 9 18 26 25 24 29 27 33 31 28 27 28 25 30 40 33 30 47 42 62 68 84 81 83 88 90 61 52 26 44 85 84 76 79 86 77 61 68 51 84 97 116 129
350 3 13 9 14 22 27 29 26 25 32 27 25 24 26 36 40 42 47 53 64 71 73 85 82 94 97 102 84 63 65 62 72 74 80 81 89 84 89 88 95 99 94 104 109
345 5 6 10 18 22 28 30 26 28 28 23 20 21 34 55 56 50 55 68 68 71 82 86 87 99 101 100 99 72 62 75 77 71 81 84 93 84 91 99 97 86 82 87 100
343 353 2 10 15 21 28 29 31 29 31 24 19 24 43 93 91 89 106 112 93 79 88 91 94 95 98 101 101 90 61 81 81 74 86 85 90 89 93 92 92 87 83 81 80